This demonstration page uses our WeatherBlox Daily Observations layout. Learn more.

Left ArrowRight Arrow

39.92423, -83.80882

Hourly Observations for November 5, 2015

Temp ( °F °C ) Dew Point ( °F °C ) Humidity (%) Winds ( mph kmh ) Pressure ( in mb ) Visibility ( mi km ) Precip ( " mm )
12:56 am 00:56 Partly Cloudy 65 18.3 60 15.5 84 84 S 5 7 30.16 1021 10 16.0934 0 0
1:56 am 01:56 Mostly Cloudy 65 18.3 60 15.5 84 84 S 6 9 30.16 1021 10 16.0934 0 0
2:56 am 02:56 Clear 64 17.7 60 15.5 87 87 S 6 9 30.16 1022 10 16.0934 0 0
3:56 am 03:56 Cloudy 64 17.7 61 16.1 90 90 S 6 9 30.16 1021 10 16.0934 0 0
4:56 am 04:56 Cloudy 64 17.7 61 16.1 90 90 S 5 7 30.16 1022 10 16.0934 0 0
5:56 am 05:56 Cloudy 63 17.2 60 15.5 90 90 SSW 5 7 30.18 1022 10 16.0934 0 0
6:56 am 06:56 Cloudy 62 16.6 60 15.5 93 93 S 5 7 30.17 1022 10 16.0934 0 0
7:56 am 07:56 Cloudy 63 17.2 61 16.1 93 93 S 5 7 30.19 1022 10 16.0934 0 0
8:56 am 08:56 Cloudy 65 18.3 61 16.1 87 87 S 6 9 30.2 1023 10 16.0934 0 0
9:56 am 09:56 Cloudy 68 20 62 16.6 81 81 SSW 9 15 30.19 1022 10 16.0934 0 0
10:56 am 10:56 Cloudy 70 21.1 62 16.6 76 76 SSW 7 11 30.19 1022 10 16.0934 0 0
11:56 am 11:56 Cloudy 72 22.2 63 17.2 73 73 S 9 15 30.16 1021 10 16.0934 0 0
12:56 pm 12:56 Partly Cloudy 76 24.4 62 16.6 62 62 SSW 13 20 30.12 1020 10 16.0934 0 0
1:56 pm 13:56 Cloudy 75 23.8 61 16.1 62 62 SW 9 15 30.11 1020 10 16.0934 0 0
2:56 pm 14:56 Partly Cloudy 74 23.3 54 12.2 50 50 SSW 12 19 30.1 1019 10 16.0934 0 0
3:56 pm 15:56 Mostly Cloudy 74 23.3 55 12.7 51 51 S 9 15 30.08 1019 10 16.0934 0 0
4:56 pm 16:56 Sunny 72 22.2 55 12.7 55 55 S 8 13 30.06 1018 10 16.0934 0 0
5:56 pm 17:56 Mostly Clear 69 20.5 55 12.7 61 61 SSE 7 11 30.06 1018 10 16.0934 0 0
6:56 pm 18:56 Clear 68 20 56 13.3 65 65 S 6 9 30.06 1018 10 16.0934 0 0
7:56 pm 19:56 Mostly Clear 68 20 56 13.3 65 65 S 6 9 30.04 1017 10 16.0934 0 0
8:56 pm 20:56 Mostly Clear 68 20 56 13.3 65 65 S 8 13 30.01 1016 10 16.0934 0 0
9:56 pm 21:56 Clear 67 19.4 57 13.8 70 70 S 8 13 30 1016 10 16.0934 0 0
10:56 pm 22:56 Mostly Cloudy 68 20 59 15 73 73 S 10 17 29.97 1015 10 16.0934 0 0
11:56 pm 23:56 Mostly Cloudy 68 20 59 15 73 73 S 7 11 29.96 1015 10 16.0934 0 0

Powered by AerisWeather